Location: Bishausen
(51.6334°N, 9.9631°E)
Time: 15:10:49
(UTC+00:00)

Cosmos 676 Rocket - Pass Details

Date: 23 May 2024
Orbit: 752 x 782 km, 74.0° (Epoch: 12 June)

Event Time Altitude Azimuth Distance (km) Brightness Sun altitude
Exits shadow 00:42:49 24° 199° (SSW) 1,562 5.0 -15.3°
Maximum altitude 00:46:04 83° 113° (ESE) 794 4.0 -15.1°
Drops below altitude 10° 00:51:25 10° 26° (NNE) 2,350 7.9 -14.8°
Sets 00:53:49 0° 26° (NNE) 3,281 9.2 -14.7°
